DW8241 Weather Reports


Display with metric or nautical units.
time (UTC)temp
F
wind
direction
speed
MPH
gust
MPH
rain 1hr
in
rain 24hr
in
rain mn
in
humidity
%
barometer
mb
20260905010038 76 91 0.0 0.0 0.00 0.01 0.01 75 1013.1
20260905004536 78 106 0.0 0.0 0.00 0.01 0.01 73 1013.0
20260905003037 80 105 0.0 1.0 0.00 0.01 0.01 73 1013.0
20260905001536 82 84 0.0 4.0 0.00 0.01 0.01 69 1013.0
20260905000035 82 95 0.0 2.0 0.00 0.01 0.01 69 1012.8
20260904234540 83 101 0.0 2.0 0.00 0.01 0.01 68 1012.8
20260904233034 83 94 1.0 3.0 0.00 0.01 0.01 67 1012.6
20260904231533 84 120 0.0 3.0 0.00 0.01 0.01 67 1012.4
20260904230045 84 117 1.0 4.0 0.00 0.01 0.01 65 1012.7
20260904224530 84 162 1.0 3.0 0.00 0.01 0.01 65 1012.9
20260904223030 84 149 2.0 5.0 0.00 0.01 0.01 67 1012.9
20260904221527 84 82 1.0 4.0 0.00 0.01 0.01 69 1012.8
20260904220025 84 142 0.0 3.0 0.00 0.01 0.01 69 1012.7
20260904214523 83 78 2.0 5.0 0.00 0.01 0.01 68 1012.7
20260904213024 83 100 1.0 5.0 0.00 0.01 0.01 70 1012.8
20260904211522 82 109 1.0 5.0 0.00 0.01 0.01 70 1012.8
20260904210018 82 50 1.0 5.0 0.00 0.01 0.01 75 1013.1
20260904204515 81 149 1.0 4.0 0.00 0.01 0.01 73 1013.4
20260904203015 81 103 1.0 6.0 0.00 0.01 0.01 75 1013.4
20260904201524 80 115 2.0 6.0 0.00 0.01 0.01 75 1013.4
20260904200028 80 79 2.0 5.0 0.00 0.26 0.01 75 1013.5
20260904194509 79 44 2.0 6.0 0.00 0.26 0.01 78 1013.6
20260904193010 78 106 2.0 7.0 0.00 0.26 0.01 79 1013.6
20260904191510 78 67 2.0 5.0 0.00 0.26 0.01 79 1013.7
20260904190002 77 50 0.0 5.0 0.00 0.98 0.01 82 1013.9
20260904184605 76 96 0.0 4.0 0.00 0.98 0.01 81 1014.1
20260904183057 75 9 3.0 6.0 0.00 0.98 0.01 85 1014.2
20260904181553 74 85 2.0 7.0 0.00 0.98 0.01 86 1014.2
20260904180053 74 80 2.0 6.0 0.00 0.98 0.01 84 1014.1
20260904174550 73 72 2.0 8.0 0.00 0.99 0.01 87 1014.1
20260904173047 71 8 2.0 11.0 0.00 0.99 0.01 88 1014.0
20260904171610 70 1 5.0 9.0 0.00 0.99 0.01 90 1013.9
20260904170039 69 341 3.0 6.0 0.00 0.99 0.01 92 1014.0
20260904164536 68 349 4.0 7.0 0.00 1.00 0.01 93 1014.1
20260904163046 66 23 1.0 6.0 0.00 1.00 0.01 97 1014.1
20260904161528 65 311 4.0 6.0 0.00 1.00 0.01 98 1014.1
20260904160027 64 301 4.0 7.0 0.00 1.00 0.01 99 1014.0
20260904154525 64 6 2.0 4.0 0.00 1.00 0.01 100 1013.9
20260904153031 64 15 2.0 4.0 0.00 1.00 0.01 100 1013.6
20260904151535 64 302 0.0 2.0 0.00 1.00 0.01 100 1013.8
20260904150023 63 257 0.0 2.0 0.00 1.00 0.01 100 1013.8
20260904144521 63 282 0.0 1.0 0.00 1.00 0.01 100 1013.9
20260904143021 62 302 0.0 0.0 0.00 1.00 0.01 100 1013.9
20260904141520 62 293 0.0 0.0 0.00 1.00 0.01 100 1013.8
20260904140018 62 89 0.0 0.0 0.00 1.00 0.01 100 1013.5
20260904134521 62 330 0.0 1.0 0.00 1.00 0.01 100 1013.5
20260904133016 61 46 0.0 4.0 0.01 1.00 0.01 100 1013.0
20260904131511 60 46 0.0 3.0 0.01 1.00 0.01 100 1012.5
20260904130010 59 54 0.0 0.0 0.01 1.00 0.01 100 1012.7
20260904124508 58 65 0.0 2.0 0.01 1.00 0.01 100 1012.4
20260904123006 57 22 2.0 6.0 0.00 0.99 0.00 100 1012.1
20260904121506 57 34 0.0 2.0 0.00 0.99 0.00 100 1012.0
20260904120006 57 31 1.0 4.0 0.00 0.99 0.00 100 1011.9
20260904114504 56 28 0.0 3.0 0.00 0.99 0.00 100 1011.9
20260904113002 58 37 0.0 3.0 0.00 0.99 0.00 100 1012.0
20260904111502 58 13 0.0 2.0 0.00 0.99 0.00 100 1012.0
20260904110100 57 284 0.0 1.0 0.00 0.99 0.00 100 1012.0
20260904104558 58 13 0.0 0.0 0.00 0.99 0.00 100 1012.0
20260904103057 58 13 0.0 1.0 0.00 0.99 0.00 100 1011.8
20260904101554 58 13 0.0 2.0 0.00 0.99 0.00 100 1011.6
20260904100053 58 353 0.0 1.0 0.00 0.99 0.00 100 1011.6
20260904094554 58 293 0.0 2.0 0.00 0.99 0.00 100 1011.4
20260904093049 59 315 0.0 3.0 0.00 0.99 0.00 100 1011.2
20260904091548 59 297 0.0 2.0 0.00 0.99 0.00 100 1011.1
20260904090046 59 321 0.0 1.0 0.00 0.99 0.00 100 1010.9
20260904084555 59 320 0.0 1.0 0.00 0.99 0.00 100 1010.9
20260904083044 59 299 0.0 1.0 0.00 0.99 0.00 99 1010.8
20260904081541 61 13 0.0 1.0 0.00 0.99 0.00 99 1010.5
20260904080100 61 3 0.0 2.0 0.00 0.99 0.00 99 1010.5
20260904074538 61 28 0.0 2.0 0.00 0.99 0.00 99 1010.7
20260904073038 62 32 0.0 0.0 0.00 0.99 0.00 99 1010.8
20260904071536 62 32 0.0 1.0 0.00 0.99 0.00 99 1011.0
20260904070044 62 32 0.0 0.0 0.00 0.99 0.00 99 1010.7
20260904064533 62 32 0.0 1.0 0.00 0.99 0.00 99 1010.6
20260904063032 62 32 0.0 1.0 0.00 0.99 0.00 99 1010.6
20260904061530 62 72 0.0 0.0 0.00 0.99 0.00 99 1010.5
20260904060029 63 74 0.0 2.0 0.00 0.99 0.00 99 1010.5
20260904054536 63 29 1.0 7.0 0.00 0.99 0.00 99 1010.3
20260904053028 63 41 0.0 9.0 0.00 0.99 0.00 99 1010.3
20260904051525 63 1 1.0 3.0 0.00 0.99 0.00 98 1010.4
20260904050021 63 30 0.0 4.0 0.00 0.99 0.99 98 1010.2
20260904044527 64 26 2.0 6.0 0.00 0.99 0.99 98 1010.1
20260904043031 64 49 2.0 6.0 0.00 0.99 0.99 98 1010.1
20260904041519 64 345 2.0 6.0 0.00 0.99 0.99 98 1010.0
20260904040019 63 319 1.0 4.0 0.00 0.99 0.99 98 1009.9
20260904034519 63 331 0.0 3.0 0.00 0.99 0.99 97 1009.7
20260904033027 63 17 1.0 3.0 0.00 0.99 0.99 97 1009.6
20260904031518 63 18 0.0 3.0 0.00 0.99 0.99 97 1009.7
20260904030016 64 26 0.0 2.0 0.00 0.99 0.99 96 1009.7
20260904024516 64 4 0.0 3.0 0.00 0.99 0.99 95 1009.9
20260904023016 65 34 0.0 4.0 0.00 0.99 0.99 94 1009.3
20260904021518 66 54 0.0 5.0 0.00 0.99 0.99 93 1009.0
20260904020015 67 27 4.0 9.0 0.00 0.99 0.99 91 1009.3
20260904014516 67 4 5.0 11.0 0.00 0.99 0.99 91 1009.1
20260904013014 66 327 3.0 6.0 0.00 0.99 0.99 93 1008.7
20260904011513 67 205 0.0 2.0 0.00 0.99 0.99 92 1007.6